Weather History for LTCJ - October, 2012

Change the Weather History Date:

Sunday, October 7, 2012

  Actual Average Record
Temperature  
Mean Temperature 73 °F -  
Max Temperature 87 °F - - ()
Min Temperature 59 °F - - ()
Cooling Degree Days 8    
Growing Degree Days 23 (Base 50)    
Moisture  
Dew Point 42 °F    
Average Humidity 33    
Maximum Humidity 55    
Minimum Humidity 17    
Precipitation  
Precipitation 0.00 in - - ()
Sea Level Pressure  
Sea Level Pressure 29.99 in    
Wind  
Wind Speed 7 mph ()    
Max Wind Speed 18 mph    
Max Gust Speed 28 mph    
Visibility 5.8 miles    
Events Rain , Thunderstorm    
T = Trace of Precipitation, MM = Missing Value Source: Averaged Metar Reports

Daily Weather History Graph

Daily Weather History Graph

Search for Another Location

Airport or City:

Trip Planner

Search our weather history database for the weather conditions in past years. The results will help you decide how hot, cold, wet, or windy it might be!

Date:

Astronomy

Oct. 07, 2012 Rise Set
Actual Time 6:16 AM EEST 5:49 PM EEST
Civil Twilight 5:50 AM EEST 6:15 PM EEST
Nautical Twilight 5:19 AM EEST 6:45 PM EEST
Astronomical Twilight 4:49 AM EEST 7:16 PM EEST
Moon 10:44 PM EEST (10/7) 12:34 PM EEST (10/7)
Length of Visible Light 12h 25m
Length of Day
11h 32m
Waning Gibbous, 59% of the Moon is Illuminated
Oct 7
Waning Gibbous
Oct 8
Last Quarter
Oct 15
New
Oct 22
First Quarter
Oct 29
Full

Hourly Weather History & Observations

Time (EEST) Temp. Dew Point Humidity Pressure Visibility Wind Dir Wind Speed Gust Speed Precip Events Conditions
12:20 AM 68.0 °F 44.6 °F 43% 30.01 in 6.2 mi North 3.5 mph - N/A   Mostly Cloudy
12:50 AM 66.2 °F 44.6 °F 46% 30.01 in 6.2 mi Variable 2.3 mph - N/A   Mostly Cloudy
1:20 AM 62.6 °F 42.8 °F 48% 30.01 in 6.2 mi NE 6.9 mph - N/A   Scattered Clouds
1:50 AM 64.4 °F 42.8 °F 45% 30.01 in 6.2 mi ENE 5.8 mph - N/A   Scattered Clouds
2:20 AM 62.6 °F 44.6 °F 52% 30.01 in 6.2 mi Variable 3.5 mph - N/A Thunderstorm Scattered Clouds
3:20 AM 60.8 °F 44.6 °F 55% 30.01 in 6.2 mi SSW 4.6 mph - N/A   Partly Cloudy
3:50 AM 60.8 °F 42.8 °F 52% 30.01 in - SSE 5.8 mph - N/A   Clear
4:20 AM 59.0 °F 42.8 °F 55% 30.01 in 6.2 mi ENE 5.8 mph - N/A   Partly Cloudy
4:50 AM 60.8 °F 41.0 °F 48% 30.01 in 6.2 mi Variable 4.6 mph - N/A   Scattered Clouds
5:20 AM 64.4 °F 41.0 °F 42% 30.01 in 6.2 mi Variable 2.3 mph - N/A   Scattered Clouds
5:50 AM 62.6 °F 42.8 °F 48% 30.06 in 6.2 mi SW 13.8 mph - N/A Thunderstorm Thunderstorm
6:20 AM 60.8 °F 42.8 °F 52% 30.06 in 6.2 mi South 4.6 mph - N/A   Scattered Clouds
6:50 AM 68.0 °F 44.6 °F 43% 30.04 in 6.2 mi NE 6.9 mph - N/A   Mostly Cloudy
7:20 AM 69.8 °F 44.6 °F 40% 30.09 in 6.2 mi Variable 6.9 mph - N/A   Mostly Cloudy
7:50 AM 68.0 °F 46.4 °F 46% 30.09 in 6.2 mi NW 8.1 mph - N/A Thunderstorm Thunderstorm
8:20 AM 73.4 °F 44.6 °F 36% 30.01 in 6.2 mi NNW 18.4 mph - N/A Thunderstorm Thunderstorm
8:50 AM 75.2 °F 46.4 °F 36% 30.04 in 6.2 mi North 13.8 mph - N/A   Scattered Clouds
9:20 AM 75.2 °F 44.6 °F 34% 30.06 in 6.2 mi NE 9.2 mph - N/A Rain , Thunderstorm Light Thunderstorms and Rain
9:50 AM 75.2 °F 46.4 °F 36% 30.04 in 6.2 mi ENE 18.4 mph - N/A Rain , Thunderstorm Light Thunderstorms and Rain
10:20 AM 75.2 °F 46.4 °F 36% 30.04 in 6.2 mi North 13.8 mph - N/A   Mostly Cloudy
10:50 AM 77.0 °F 44.6 °F 32% 30.04 in 6.2 mi NNE 11.5 mph - N/A   Mostly Cloudy
11:20 AM 80.6 °F 44.6 °F 28% 30.04 in 6.2 mi NNE 11.5 mph - N/A   Mostly Cloudy
11:50 AM 82.4 °F 42.8 °F 25% 30.01 in 6.2 mi ENE 13.8 mph - N/A   Mostly Cloudy
12:20 PM 84.2 °F 41.0 °F 22% 30.01 in 6.2 mi ENE 11.5 mph - N/A   Mostly Cloudy
12:50 PM 84.2 °F 39.2 °F 20% 29.98 in 6.2 mi ENE 11.5 mph 25.3 mph N/A   Scattered Clouds
1:20 PM 86.0 °F 41.0 °F 20% 29.98 in 6.2 mi East 13.8 mph - N/A   Scattered Clouds
1:50 PM 86.0 °F 39.2 °F 19% 29.95 in 6.2 mi ENE 11.5 mph - N/A   Scattered Clouds
2:20 PM 87.8 °F 39.2 °F 18% 29.95 in 6.2 mi ENE 12.7 mph - N/A   Partly Cloudy
2:50 PM 87.8 °F 39.2 °F 18% 29.95 in 6.2 mi ESE 10.4 mph - N/A   Partly Cloudy
3:20 PM 87.8 °F 37.4 °F 17% 29.95 in 6.2 mi Variable 6.9 mph - N/A   Scattered Clouds
3:50 PM 87.8 °F 39.2 °F 18% 29.92 in 6.2 mi ENE 8.1 mph - N/A   Scattered Clouds
4:20 PM 87.8 °F 39.2 °F 18% 29.92 in 6.2 mi ENE 10.4 mph - N/A   Scattered Clouds
4:50 PM 86.0 °F 39.2 °F 19% 29.92 in 6.2 mi ENE 9.2 mph - N/A   Mostly Cloudy
5:20 PM 86.0 °F 37.4 °F 18% 29.92 in 3.7 mi SSW 16.1 mph 27.6 mph N/A   Widespread Dust
5:50 PM 84.2 °F 37.4 °F 19% 29.92 in 3.1 mi South 8.1 mph - N/A   Mostly Cloudy
6:20 PM 82.4 °F 39.2 °F 21% 29.92 in 3.7 mi South 6.9 mph - N/A   Mostly Cloudy
6:50 PM 80.6 °F 39.2 °F 23% 29.95 in 3.7 mi South 6.9 mph - N/A   Mostly Cloudy
7:20 PM 80.6 °F 37.4 °F 21% 29.95 in 3.7 mi South 6.9 mph - N/A   Mostly Cloudy
7:50 PM 77.0 °F 41.0 °F 28% 29.95 in 3.7 mi West 4.6 mph - N/A   Mostly Cloudy
8:20 PM 77.0 °F 37.4 °F 24% 29.95 in 3.7 mi Variable 2.3 mph - N/A   Mostly Cloudy
8:50 PM 77.0 °F 41.0 °F 28% 29.98 in 5.0 mi SE 6.9 mph - N/A   Mostly Cloudy
9:20 PM 77.0 °F 37.4 °F 24% 29.98 in 5.0 mi ESE 4.6 mph - N/A   Mostly Cloudy
9:50 PM 71.6 °F 41.0 °F 33% 29.98 in 6.2 mi NNE 4.6 mph - N/A   Scattered Clouds
10:20 PM 77.0 °F 39.2 °F 26% 29.95 in 6.2 mi ESE 11.5 mph - N/A   Partly Cloudy
10:50 PM 77.0 °F 41.0 °F 28% 29.95 in 6.2 mi East 5.8 mph - N/A   Scattered Clouds
11:20 PM 71.6 °F 46.4 °F 41% 29.95 in 6.2 mi NNE 4.6 mph - N/A Thunderstorm Thunderstorm
11:50 PM 69.8 °F 51.8 °F 53% 29.95 in 6.2 mi ENE 10.4 mph - N/A   Mostly Cloudy